EN

Hourly Weather Bolshie Golubochki

Today, 26 October, Monday

Time Temperature Precipitation Wind Pressure Humidity
00:00 +8°C° 0 mm 2 mps 751 mmHg 84%
01:00 +9°C° 0 mm 1 mps 752 mmHg 84%
02:00 +9°C° 0 mm 1 mps 752 mmHg 84%
03:00 +9°C° 0 mm 1 mps 752 mmHg 84%
04:00 +9°C° 0 mm 1 mps 753 mmHg 84%
05:00 +10°C° 0 mm 1 mps 753 mmHg 84%
06:00 +10°C° 0 mm 1 mps 753 mmHg 82%
07:00 +10°C° 0 mm 1 mps 753 mmHg 80%
08:00 +11°C° 0 mm 1 mps 753 mmHg 78%
09:00 +11°C° 0 mm 1 mps 753 mmHg 72%
10:00 +12°C° 0 mm 1 mps 754 mmHg 66%
11:00 +13°C° 0 mm 1 mps 754 mmHg 61%
12:00 +13°C° 0 mm 1 mps 754 mmHg 60%
13:00 +13°C° 0 mm 1 mps 754 mmHg 59%
14:00 +13°C° 0 mm 1 mps 754 mmHg 58%
15:00 +12°C° 0 mm 1 mps 754 mmHg 63%
16:00 +11°C° 0 mm 1 mps 754 mmHg 68%
17:00 +10°C° 0 mm 1 mps 754 mmHg 73%
18:00 +10°C° 0 mm 1 mps 754 mmHg 74%
19:00 +9°C° 0 mm 1 mps 754 mmHg 76%
20:00 +8°C° 0 mm 2 mps 755 mmHg 78%
21:00 +8°C° 0 mm 2 mps 755 mmHg 80%
22:00 +8°C° 0 mm 2 mps 755 mmHg 81%
23:00 +7°C° 0 mm 2 mps 755 mmHg 83%

Tomorrow, 27 October, Tuesday

Time Temperature Precipitation Wind Pressure Humidity
00:00 +7°C° 0 mm 2 mps 755 mmHg 84%
01:00 +7°C° 0 mm 2 mps 755 mmHg 85%
02:00 +7°C° 0 mm 3 mps 755 mmHg 86%
03:00 +5°C° 0 mm 3 mps 755 mmHg 88%
04:00 +5°C° 0 mm 3 mps 755 mmHg 89%
05:00 +5°C° 0 mm 3 mps 756 mmHg 91%
06:00 +5°C° 0 mm 3 mps 756 mmHg 89%
07:00 +7°C° 0 mm 3 mps 756 mmHg 88%
08:00 +7°C° 0 mm 3 mps 756 mmHg 87%
09:00 +8°C° 0 mm 3 mps 756 mmHg 81%
10:00 +8°C° 0 mm 4 mps 756 mmHg 76%
11:00 +11°C° 0 mm 4 mps 756 mmHg 71%
12:00 +11°C° 0 mm 4 mps 756 mmHg 70%
13:00 +11°C° 0 mm 4 mps 756 mmHg 69%
14:00 +11°C° 0 mm 4 mps 756 mmHg 68%
15:00 +10°C° 0 mm 4 mps 756 mmHg 73%
16:00 +9°C° 0 mm 3 mps 756 mmHg 79%
17:00 +8°C° 0 mm 3 mps 756 mmHg 84%
18:00 +8°C° 0 mm 3 mps 756 mmHg 85%
19:00 +7°C° 0 mm 3 mps 756 mmHg 85%
20:00 +7°C° 0 mm 3 mps 756 mmHg 86%
21:00 +6°C° 0 mm 4 mps 756 mmHg 86%
22:00 +6°C° 0 mm 4 mps 756 mmHg 86%
23:00 +5°C° 0 mm 4 mps 756 mmHg 86%

Day after tomorrow, 28 October, Wednesday

Time Temperature Precipitation Wind Pressure Humidity
00:00 +5°C° 0 mm 4 mps 756 mmHg 86%
01:00 +5°C° 0 mm 3 mps 756 mmHg 86%
02:00 +5°C° 0 mm 3 mps 756 mmHg 86%
03:00 +4°C° 0 mm 3 mps 756 mmHg 86%
04:00 +4°C° 0 mm 4 mps 756 mmHg 85%
05:00 +4°C° 0 mm 4 mps 756 mmHg 85%
06:00 +4°C° 0 mm 4 mps 756 mmHg 83%
07:00 +5°C° 0 mm 4 mps 756 mmHg 81%
08:00 +5°C° 0 mm 5 mps 756 mmHg 79%
09:00 +6°C° 0 mm 5 mps 756 mmHg 74%
10:00 +8°C° 0 mm 5 mps 756 mmHg 69%
11:00 +9°C° 0 mm 5 mps 756 mmHg 65%
12:00 +9°C° 0 mm 5 mps 756 mmHg 63%
13:00 +10°C° 0 mm 5 mps 756 mmHg 62%
14:00 +10°C° 0 mm 5 mps 756 mmHg 61%
15:00 +10°C° 0 mm 4 mps 756 mmHg 65%
16:00 +8°C° 0 mm 4 mps 756 mmHg 69%
17:00 +6°C° 0 mm 4 mps 756 mmHg 72%
18:00 +6°C° 0 mm 4 mps 756 mmHg 72%
19:00 +5°C° 0 mm 4 mps 756 mmHg 72%
20:00 +5°C° 0 mm 4 mps 756 mmHg 72%
21:00 +5°C° 0 mm 4 mps 756 mmHg 70%
22:00 +4°C° 0 mm 4 mps 756 mmHg 68%
23:00 +4°C° 0 mm 4 mps 756 mmHg 65%

29 October, Thursday

Time Temperature Precipitation Wind Pressure Humidity
00:00 +3°C° 0 mm 3 mps 756 mmHg 63%
01:00 +3°C° 0 mm 3 mps 756 mmHg 60%
02:00 +2°C° 0 mm 3 mps 756 mmHg 58%
03:00 +2°C° 0 mm 3 mps 756 mmHg 58%
04:00 +2°C° 0 mm 3 mps 756 mmHg 58%
05:00 +1°C° 0 mm 3 mps 755 mmHg 58%
06:00 +1°C° 0 mm 4 mps 755 mmHg 58%
07:00 +1°C° 0 mm 4 mps 755 mmHg 58%
08:00 +1°C° 0 mm 4 mps 755 mmHg 58%
09:00 +3°C° 0 mm 4 mps 755 mmHg 56%
10:00 +4°C° 0 mm 4 mps 755 mmHg 55%
11:00 +6°C° 0 mm 4 mps 755 mmHg 54%
12:00 +6°C° 0 mm 4 mps 754 mmHg 55%
13:00 +6°C° 0 mm 4 mps 754 mmHg 56%
14:00 +7°C° 0 mm 4 mps 754 mmHg 56%
15:00 +6°C° 0 mm 4 mps 754 mmHg 60%
16:00 +5°C° 0 mm 3 mps 754 mmHg 63%
17:00 +5°C° 0 mm 3 mps 754 mmHg 67%
18:00 +4°C° 0 mm 3 mps 754 mmHg 67%
19:00 +4°C° 0 mm 3 mps 753 mmHg 68%
20:00 +4°C° 0 mm 3 mps 753 mmHg 68%
21:00 +4°C° 0 mm 3 mps 753 mmHg 70%
22:00 +3°C° 0 mm 3 mps 753 mmHg 71%
23:00 +4°C° 0 mm 2 mps 753 mmHg 73%

30 October, Friday

Time Temperature Precipitation Wind Pressure Humidity
00:00 +4°C° 0 mm 2 mps 753 mmHg 73%
01:00 +4°C° 0 mm 2 mps 753 mmHg 73%
02:00 +4°C° 0 mm 2 mps 753 mmHg 72%
03:00 +4°C° 0 mm 2 mps 752 mmHg 75%
04:00 +4°C° 0 mm 2 mps 752 mmHg 77%
05:00 +3°C° 0 mm 2 mps 752 mmHg 80%
06:00 +4°C° 0 mm 2 mps 752 mmHg 81%
07:00 +4°C° 0 mm 2 mps 752 mmHg 81%
08:00 +4°C° 0 mm 2 mps 752 mmHg 82%
09:00 +5°C° 0 mm 2 mps 752 mmHg 78%
10:00 +7°C° 0 mm 2 mps 752 mmHg 74%
11:00 +8°C° 0 mm 2 mps 752 mmHg 70%
12:00 +9°C° 0 mm 2 mps 752 mmHg 69%
13:00 +9°C° 0 mm 2 mps 752 mmHg 67%
14:00 +10°C° 0 mm 1 mps 752 mmHg 66%
15:00 +9°C° 0 mm 1 mps 752 mmHg 71%
16:00 +8°C° 0 mm 1 mps 752 mmHg 76%
17:00 +7°C° 0 mm 1 mps 752 mmHg 81%
18:00 +7°C° 0 mm 1 mps 752 mmHg 82%
19:00 +6°C° 0 mm 1 mps 752 mmHg 84%
20:00 +6°C° 0 mm 1 mps 752 mmHg 86%
21:00 +6°C° 0 mm 1 mps 752 mmHg 87%
22:00 +6°C° 0 mm 1 mps 752 mmHg 88%
23:00 +5°C° 0 mm 1 mps 752 mmHg 89%

31 October, Saturday

Time Temperature Precipitation Wind Pressure Humidity
00:00 +4°C° 0 mm 2 mps 752 mmHg 90%
01:00 +4°C° 0 mm 2 mps 752 mmHg 91%
02:00 +4°C° 0 mm 2 mps 752 mmHg 92%
03:00 +4°C° 0 mm 2 mps 752 mmHg 93%
04:00 +4°C° 0 mm 2 mps 752 mmHg 95%
05:00 +4°C° 0 mm 2 mps 752 mmHg 96%
06:00 +4°C° 0 mm 2 mps 752 mmHg 96%
07:00 +5°C° 0 mm 2 mps 752 mmHg 95%
08:00 +4°C° 0 mm 3 mps 752 mmHg 95%
Show more